Home   Weather   Lofoten   Past weeks
Flag for Norway

Past Weather in Lofoten, Norway — September 2017

Now
40 °F

Chilly.


Feels Like: 35 °F
Forecast: 41 / 36 °F
Wind: 7 mph from South

Location: Skrova Fyr

Current Time: Oct 15, 2019 at 3:26:15 am

Latest Report: Oct 15, 2019 at 2:00 am


Visibility: N/A

Pressure: 29.90 "Hg

Humidity: 87%

Dew Point: 36 °F

Location of LofotenLocation

September 2017 Weather in Lofoten — Graph

°F

High & Low Weather Summary for September 2017

 TemperatureHumidityPressure
High65 °F (Sep 30, 1:00 pm)99% (Sep 2, 4:00 pm)30.67 "Hg (Sep 2, 4:00 pm)
Low47 °F (Sep 21, 4:00 am)34% (Sep 30, 12:00 am)29.15 "Hg (Sep 11, 12:00 am)
Average55 °F68%30.00 "Hg
* Reported Sep 1 12:00 am — Sep 30 11:00 pm, Lofoten. Weather by CustomWeather, © 2019

Note: Actual official high and low records may vary slightly from our data, if they occured in-between our weather recording intervals... More about our weather records

Advertising

Lofoten Weather History for September 1, 2017

Scroll right to see more
 ConditionsComfort  
Time TempWeatherWind HumidityBarometerVisibility
12:00 am
Fri, Sep 1
51 °FCool.5 mph76%29.80 "HgN/A
1:00 am50 °FCool.2 mph76%29.80 "HgN/A
2:00 am51 °FCool.2 mph76%29.79 "HgN/A
4:00 am51 °FCool.6 mph78%29.79 "HgN/A
5:00 am50 °FCool.5 mph77%29.79 "HgN/A
6:00 am50 °FCool.3 mph78%29.79 "HgN/A
8:00 am50 °FOvercast.5 mph77%29.79 "Hg47 mi
9:00 am51 °FCool.3 mph77%29.81 "HgN/A
10:00 am51 °FCool.3 mph74%29.82 "HgN/A
11:00 am52 °FCool.5 mph73%29.83 "HgN/A
12:00 pm52 °FCool.2 mph72%29.84 "HgN/A
1:00 pm53 °FCool.2 mph68%29.84 "HgN/A
2:00 pm53 °FPartly sunny.2 mph67%29.85 "Hg47 mi
3:00 pm54 °FCool.1 mph66%29.86 "HgN/A
4:00 pm53 °FCool.2 mph69%29.87 "HgN/A
5:00 pm53 °FCool.3 mph72%29.88 "HgN/A
6:00 pm53 °FCool.6 mph72%29.89 "HgN/A
7:00 pm53 °FCool.5 mph67%29.91 "HgN/A
8:00 pm52 °FPartly sunny.5 mph68%29.92 "Hg47 mi
9:00 pm52 °FCool.5 mph73%29.93 "HgN/A
10:00 pm51 °FCool.2 mph75%29.94 "HgN/A
11:00 pm51 °FCool.3 mph72%29.95 "HgN/A
Weather by CustomWeather, © 2019

See weather overview